1497510000.91,20541,17.56,74020.3,14.77,-25.19,-26.65,0,*42
1497510002.16,20542,17.56,74022.0,14.79,-24.97,-26.71,0,*4D
1497510003.37,20543,17.56,74020.3,14.81,-26.45,-28.15,0,*4A
1497510004.56,20544,17.56,74020.5,14.81,-24.93,-26.45,0,*4F
1497510005.76,20545,17.56,74022.8,14.81,-24.61,-26.23,0,*43
1497510006.98,20546,17.56,74020.3,14.81,-24.77,-26.39,0,*4C
1497510008.23,20547,17.56,74020.3,14.83,-24.57,-26.17,0,*41
1497510009.44,20548,17.56,74020.5,14.85,-24.51,-25.91,0,*43
1497510010.7,20549,17.56,74022.5,14.85,-25.71,-27.35,0,*4D
1497510011.92,20550,17.56,74022.3,14.83,-26.23,-27.89,0,*40
1497510013.15,20551,17.56,74022.5,14.85,-24.51,-26.17,0,*46
1497510014.39,20552,17.56,74022.3,14.85,-24.41,-25.91,0,*49
1497510015.68,20553,17.56,74022.3,14.87,-24.83,-26.33,0,*4F
1497510016.93,20554,17.56,74020.0,14.87,-25.65,-27.19,0,*48
1497510018.16,20555,17.56,74024.0,14.89,-24.97,-26.55,0,*42
1497510019.41,20556,17.56,74024.3,14.87,-25.35,-26.97,0,*48
1497510020.62,20557,17.56,74020.8,14.89,-24.31,-25.91,0,*47
1497510021.85,20558,17.56,74024.0,14.91,-25.87,-27.67,0,*46
1497510023.14,20559,17.56,74022.3,14.91,-25.71,-27.35,0,*49
1497510024.38,20560,17.56,74018.3,14.91,-24.51,-26.07,0,*40
1497510025.65,20561,17.56,74022.3,14.93,-24.25,-25.75,0,*46
1497510026.88,20562,17.56,74022.8,14.93,-24.41,-25.87,0,*4A
1497510028.12,20563,17.56,74022.0,14.91,-24.51,-26.03,0,*47
1497510029.33,20564,17.56,74024.3,14.93,-24.77,-26.23,0,*44
1497510030.53,20565,17.56,74022.3,14.93,-24.93,-26.39,0,*44
1497510031.79,20566,17.56,74026.5,14.95,-23.89,-25.29,0,*4F
1497510033.04,20567,17.56,74022.3,14.95,-27.51,-29.39,0,*42
1497510034.33,20568,17.56,74022.3,14.95,-27.61,-29.17,0,*42
1497510035.58,20569,17.56,74020.0,14.93,-25.71,-27.23,0,*4F
1497510036.82,20570,17.56,74022.0,14.91,-25.49,-27.07,0,*48
1497510038.05,20571,17.56,74024.5,14.93,-25.03,-26.65,0,*40
1497510039.33,20572,17.56,74024.5,14.91,-25.75,-27.35,0,*44
1497510040.55,20573,17.56,74022.5,14.91,-25.19,-26.65,0,*4B
1497510041.79,20574,17.56,74024.0,14.93,-23.95,-25.49,0,*41
1497510043.05,20575,17.56,74024.3,14.99,-23.79,-25.29,0,*4E
1497510044.3,20576,17.56,74024.8,14.95,-24.87,-26.61,0,*48
1497510045.54,20577,17.56,74020.8,14.95,-26.65,-28.31,0,*4C
1497510046.82,20578,17.56,74018.5,14.91,-29.73,-31.73,0,*41
1497510048.04,20579,17.56,74022.5,14.89,-30.23,-32.29,0,*48
1497510049.31,20580,17.56,74022.3,14.87,-26.77,-28.31,0,*44
1497510050.54,20581,17.56,74024.0,14.85,-24.77,-26.55,0,*49
1497510051.81,20582,17.56,74020.5,14.87,-27.19,-29.01,0,*4D
1497510053.06,20583,17.56,74022.3,14.87,-25.19,-26.77,0,*40
1497510054.29,20584,17.56,74022.3,14.85,-24.61,-26.13,0,*49
1497510055.53,20585,17.56,74022.3,14.87,-25.65,-27.29,0,*47
1497510056.8,20586,17.56,74022.3,14.89,-24.25,-25.55,0,*46
1497510058.03,20587,17.56,74020.8,14.89,-24.57,-26.13,0,*43
1497510059.26,20588,17.56,74024.5,14.89,-25.45,-27.13,0,*4F
1497510060.49,20589,17.56,74024.0,14.89,-27.77,-29.35,0,*47
1497510061.72,20590,17.56,74024.0,14.87,-27.03,-28.85,0,*48
1497510062.95,20591,17.56,74024.5,14.87,-27.51,-29.23,0,*43
1497510064.17,20592,17.56,74022.3,14.83,-25.91,-27.51,0,*41
1497510065.39,20593,17.56,74026.3,14.85,-24.93,-26.55,0,*40
1497510066.67,20594,17.56,74024.8,14.83,-25.71,-27.35,0,*4B
1497510067.87,20595,17.56,74024.8,14.85,-25.35,-26.87,0,*44
1497510069.08,20596,17.56,74026.8,14.85,-25.39,-27.03,0,*46
1497510070.3,20597,17.56,74022.3,14.85,-26.71,-28.37,0,*40
1497510071.53,20598,17.56,74020.3,14.85,-25.91,-27.39,0,*43
1497510072.77,20599,17.56,74026.8,14.83,-24.93,-26.33,0,*4C
1497510074.04,20600,17.56,74022.5,14.85,-24.25,-25.75,0,*45
1497510075.27,20601,17.56,74022.5,14.85,-25.49,-27.23,0,*4E
1497510076.49,20602,17.56,74020.5,14.85,-24.87,-26.49,0,*43
1497510077.69,20603,17.56,74024.0,14.85,-24.57,-26.23,0,*43
1497510078.92,20604,17.56,74020.5,14.85,-25.39,-26.93,0,*46
1497510080.12,20605,17.56,74022.3,14.85,-25.91,-27.67,0,*4F
1497510081.36,20606,17.56,74022.8,14.85,-25.55,-27.07,0,*42
1497510082.62,20607,17.56,74020.5,14.87,-24.47,-25.97,0,*48
1497510083.88,20608,17.56,74024.0,14.87,-25.03,-26.61,0,*4C
1497510085.11,20609,17.56,74018.8,14.87,-23.89,-25.35,0,*4B
1497510086.34,20610,17.56,74024.0,14.89,-25.09,-26.93,0,*4C
1497510087.62,20611,17.56,74022.3,14.87,-24.87,-26.55,0,*4E
1497510088.85,20612,17.56,74022.3,14.89,-24.31,-25.81,0,*44
1497510090.09,20613,17.56,74022.3,14.89,-24.25,-25.91,0,*41
1497510091.3,20614,17.56,74024.5,14.89,-24.77,-26.39,0,*40
1497510092.53,20615,17.56,74024.5,14.91,-23.59,-25.23,0,*4B
1497510093.76,20616,17.56,74022.5,14.91,-26.07,-27.71,0,*43
1497510095.05,20617,17.56,74022.3,14.91,-25.55,-27.35,0,*46
1497510096.27,20618,17.56,74020.8,14.93,-25.19,-26.77,0,*44
1497510097.53,20619,17.56,74026.5,14.91,-25.23,-26.77,0,*4E
1497510098.76,20620,17.56,74022.5,14.91,-23.79,-25.49,0,*43
1497510099.99,20621,17.56,74026.3,14.93,-23.65,-25.23,0,*41
1497510101.26,20622,17.56,74026.3,14.95,-23.75,-25.29,0,*4F
1497510102.54,20623,17.56,74024.0,14.95,-25.29,-26.97,0,*47
1497510103.8,20624,17.56,74022.8,14.99,-24.25,-25.91,0,*44
1497510105.03,20625,17.56,74026.3,14.95,-26.61,-28.31,0,*4C
1497510106.29,20626,17.56,74022.3,14.99,-24.83,-26.45,0,*40
1497510107.57,20627,17.56,74022.8,14.95,-23.69,-25.29,0,*47
1497510108.82,20628,17.56,74026.0,14.99,-24.67,-26.65,0,*46
1497510110.05,20629,17.56,74026.3,14.99,-24.61,-26.07,0,*45
1497510111.29,20630,17.56,74024.0,15.01,-23.99,-25.61,0,*4E
1497510112.5,20631,17.56,74022.8,15.01,-24.77,-26.45,0,*4D
1497510113.73,20632,17.56,74026.5,14.99,-25.49,-27.13,0,*40
1497510114.95,20633,17.56,74020.5,14.99,-24.97,-26.45,0,*41
1497510116.18,20634,17.56,74022.8,14.99,-24.61,-26.23,0,*4F
1497510117.43,20635,17.56,74022.5,14.99,-24.61,-26.13,0,*4D
1497510118.66,20636,17.56,74024.0,15.03,-23.39,-24.93,0,*4C
1497510119.92,20637,17.56,74020.3,15.03,-25.87,-27.39,0,*4D
1497510121.16,20638,17.56,74020.3,15.03,-24.77,-26.23,0,*46
1497510122.42,20639,17.56,74020.3,15.03,-24.77,-26.33,0,*46
1497510123.66,20640,17.56,74020.0,15.03,-23.75,-25.19,0,*46
1497510124.93,20641,17.56,74020.5,15.03,-23.95,-25.39,0,*4B
1497510126.18,20642,17.56,74024.0,15.03,-24.47,-26.03,0,*4A
1497510127.47,20643,17.56,74026.0,15.03,-24.25,-25.71,0,*49
1497510128.71,20644,17.56,74024.8,15.05,-24.41,-25.87,0,*43
1497510129.93,20645,17.56,74024.0,15.05,-27.19,-28.97,0,*40
1497510131.19,20646,17.56,74026.3,15.07,-25.55,-27.13,0,*48
1497510132.45,20647,17.56,74022.0,15.03,-25.71,-27.07,0,*4E
1497510133.71,20648,17.56,74020.8,15.03,-26.49,-28.05,0,*44
1497510134.98,20649,17.56,74016.8,15.03,-26.17,-27.71,0,*42
1497510136.21,20650,17.56,74016.0,15.01,-25.61,-27.23,0,*4D
1497510137.44,20651,17.56,74020.5,15.01,-25.97,-27.67,0,*45
1497510138.7,20652,17.56,74018.0,15.03,-25.61,-27.19,0,*44
1497510139.91,20653,17.56,74020.3,15.01,-25.13,-26.65,0,*48
1497510141.14,20654,17.56,74020.5,15.01,-25.39,-26.81,0,*4D
1497510142.36,20655,17.56,74022.8,14.99,-24.93,-26.39,0,*4E
1497510143.59,20656,17.56,74024.5,15.01,-24.67,-26.39,0,*46
1497510144.83,20657,17.56,74022.8,15.01,-24.83,-26.45,0,*46
1497510146.04,20658,17.56,74020.3,14.99,-24.93,-26.45,0,*48
1497510147.31,20659,17.56,74022.8,15.03,-24.41,-25.87,0,*49
1497510148.54,20660,17.56,74022.3,15.01,-25.49,-26.97,0,*4A
1497510149.84,20661,17.56,74022.5,15.03,-24.21,-25.75,0,*49
1497510151.08,20662,17.56,74020.5,15.01,-24.61,-26.13,0,*4F
1497510152.36,20663,17.56,74022.5,15.03,-25.03,-26.55,0,*4B
1497510153.64,20664,17.56,74022.0,15.03,-24.87,-26.33,0,*41
1497510154.9,20665,17.56,74020.3,15.03,-24.87,-26.23,0,*41
1497510156.16,20666,17.56,74022.8,15.03,-24.41,-25.91,0,*42
1497510157.39,20667,17.56,74022.3,15.03,-25.19,-26.61,0,*43
1497510158.65,20668,17.56,74022.3,15.03,-25.03,-26.49,0,*4D
1497510159.88,20669,17.56,74022.0,15.03,-24.57,-26.07,0,*46
1497510161.12,20670,17.56,74024.3,15.03,-23.79,-25.23,0,*40
1497510162.38,20671,17.56,74024.3,15.05,-24.83,-26.71,0,*41
1497510163.66,20672,17.56,74022.5,15.07,-24.67,-26.13,0,*4E
1497510164.94,20673,17.56,74026.0,15.07,-24.83,-26.17,0,*41
1497510166.18,20674,17.56,74024.0,15.05,-24.41,-25.91,0,*47
1497510167.4,20675,17.56,74024.5,15.07,-25.13,-26.87,0,*46
1497510168.64,20676,17.56,74022.8,15.05,-26.61,-28.21,0,*43
1497510169.9,20677,17.56,74024.0,15.05,-26.33,-28.09,0,*4F
1497510171.13,20678,17.56,74024.8,15.05,-27.07,-28.91,0,*47
1497510172.39,20679,17.56,74024.8,15.01,-28.21,-30.05,0,*4D
1497510173.67,20680,17.56,74026.5,14.99,-30.01,-31.95,0,*48
1497510174.93,20681,17.56,74020.3,14.93,-31.39,-33.27,0,*42
1497510176.18,20682,17.56,74024.5,14.87,-32.13,-34.01,0,*4C
1497510177.41,20683,17.56,74024.8,14.81,-31.91,-33.95,0,*48
1497510178.67,20684,17.56,74024.0,14.77,-30.95,-32.75,0,*4C
1497510179.93,20685,17.56,74020.0,14.69,-32.63,-34.65,0,*4E
1497510181.17,20686,17.56,74022.5,14.65,-32.29,-34.35,0,*4A
1497510182.43,20687,17.56,74022.8,14.61,-33.31,-35.35,0,*46
1497510183.67,20688,17.56,74022.3,14.57,-29.67,-31.23,0,*47
1497510184.88,20689,17.56,74022.0,14.53,-28.37,-30.27,0,*43
1497510186.11,20690,17.56,74022.5,14.53,-29.79,-31.51,0,*40
1497510187.37,20691,17.56,74018.3,14.49,-29.29,-31.05,0,*4E
1497510188.59,20692,17.56,74022.0,14.47,-30.23,-31.95,0,*48
1497510189.81,20693,17.56,74016.5,14.45,-30.23,-32.13,0,*46
1497510191.04,20694,17.56,74020.8,14.43,-31.11,-33.15,0,*40
1497510192.27,20695,17.56,74018.5,14.39,-32.45,-34.59,0,*41
1497510193.55,20696,17.56,74020.0,14.33,-30.89,-32.85,0,*4D
1497510194.82,20697,17.56,74018.0,14.33,-28.85,-30.61,0,*41
1497510196.07,20698,17.56,74018.0,14.31,-30.61,-32.29,0,*41
1497510197.31,20699,17.56,74018.8,14.27,-27.07,-28.59,0,*4D
1497510198.54,20700,17.56,74012.0,14.27,-27.07,-28.75,0,*42
1497510199.77,20701,17.56,74018.0,14.27,-26.45,-27.99,0,*49
1497510201.03,20702,17.56,74012.3,14.31,-26.93,-28.43,0,*4E
1497510202.26,20703,17.56,74018.5,14.27,-27.13,-28.63,0,*43
1497510203.49,20704,17.56,74018.8,14.31,-27.07,-28.79,0,*4D
1497510204.75,20705,17.56,74016.8,14.27,-26.55,-27.99,0,*4C
1497510205.95,20706,17.56,74020.0,14.27,-26.23,-27.71,0,*48
1497510207.15,20707,17.56,74016.8,14.27,-26.07,-27.55,0,*49
1497510208.36,20708,17.56,74020.0,14.31,-25.87,-27.51,0,*4E
1497510209.64,20709,17.56,74026.0,14.33,-25.45,-26.97,0,*48
1497510210.92,20710,17.56,74024.5,14.33,-25.81,-27.35,0,*41
1497510212.18,20711,17.56,74026.0,14.33,-25.81,-27.29,0,*4D
1497510213.43,20712,17.56,74024.0,14.33,-25.81,-27.51,0,*41
1497510214.69,20713,17.56,74024.5,14.33,-26.17,-27.67,0,*49
1497510215.92,20714,17.56,74026.0,14.35,-25.45,-27.03,0,*4E
1497510217.16,20715,17.56,74024.5,14.37,-24.31,-25.65,0,*4D
1497510218.39,20716,17.56,74022.8,14.37,-25.39,-27.07,0,*41
1497510219.68,20717,17.56,74028.0,14.37,-25.75,-27.39,0,*45
1497510220.94,20718,17.56,74024.8,14.37,-26.39,-27.83,0,*40
1497510222.2,20719,17.56,74026.5,14.37,-26.39,-27.99,0,*4A
1497510223.44,20720,17.56,74026.5,14.37,-26.07,-27.67,0,*4C
1497510224.67,20721,17.56,74022.5,14.37,-24.77,-26.23,0,*49
1497510225.91,20722,17.56,74026.3,14.41,-24.47,-26.07,0,*4E
1497510227.15,20723,17.56,74026.3,14.41,-25.23,-26.77,0,*4B
1497510228.44,20724,17.56,74024.8,14.41,-24.71,-26.17,0,*4C
1497510229.65,20725,17.56,74024.8,14.43,-24.57,-26.03,0,*4E
1497510230.86,20726,17.56,74026.5,14.43,-29.23,-31.01,0,*47
1497510232.1,20727,17.56,74024.8,14.41,-27.71,-29.13,0,*47
1497510233.32,20728,17.56,74026.8,14.39,-25.35,-26.71,0,*4E
1497510234.6,20729,17.56,74024.8,14.41,-25.75,-27.23,0,*42
1497510235.85,20730,17.56,74030.8,14.41,-25.91,-27.61,0,*46
1497510237.08,20731,17.56,74026.5,14.39,-26.87,-28.43,0,*43
1497510238.3,20732,17.56,74026.3,14.39,-27.23,-29.07,0,*4E
1497510239.58,20733,17.56,74030.3,14.37,-30.01,-31.73,0,*4D
1497510240.81,20734,17.56,74024.5,14.35,-31.85,-33.67,0,*42
1497510242.05,20735,17.56,74022.3,14.27,-29.83,-31.61,0,*4B
1497510243.3,20736,17.56,74024.3,14.25,-27.39,-28.85,0,*47
1497510244.59,20737,17.63,74026.8,14.25,-26.93,-28.43,0,*4D
1497510245.87,20738,17.56,74024.3,14.25,-27.45,-29.01,0,*4F
1497510247.1,20739,17.56,74020.5,14.23,-26.49,-28.05,0,*40
1497510248.31,20740,17.56,74024.8,14.23,-24.35,-25.65,0,*4C
1497510249.57,20741,17.56,74026.8,14.25,-23.69,-25.09,0,*4F
1497510250.81,20742,17.56,74024.5,14.27,-24.31,-25.81,0,*44
1497510252.01,20743,17.56,74022.0,14.31,-25.23,-26.61,0,*4D
1497510253.29,20744,17.56,74018.3,14.33,-24.87,-26.33,0,*40
1497510254.58,20745,17.56,74022.8,14.33,-24.71,-26.29,0,*43
1497510255.84,20746,17.56,74022.0,14.33,-25.35,-26.81,0,*43
1497510257.1,20747,17.56,74022.5,14.35,-24.21,-25.71,0,*4C
1497510258.33,20748,17.56,74026.5,14.35,-26.45,-27.99,0,*47
1497510259.56,20749,17.56,74024.3,14.35,-26.55,-28.15,0,*4C
1497510260.79,20750,17.56,74022.5,14.35,-25.45,-26.87,0,*43
1497510262.02,20751,17.56,74024.0,14.35,-25.55,-27.03,0,*4E
1497510263.27,20752,17.56,74026.0,14.35,-25.45,-26.71,0,*48
1497510264.53,20753,17.56,74022.3,14.37,-24.77,-26.13,0,*4F
1497510265.77,20754,17.56,74024.0,14.37,-24.31,-25.65,0,*48
1497510267.0,20755,17.56,74020.3,14.37,-25.23,-26.65,0,*48
1497510268.28,20756,17.56,74018.5,14.37,-25.45,-26.93,0,*42
1497510269.56,20757,17.63,74024.3,14.37,-25.45,-26.81,0,*40
1497510270.78,20758,17.56,74022.3,14.39,-24.93,-26.33,0,*42
1497510272.02,20759,17.56,74028.5,14.39,-24.35,-25.75,0,*4E
1497510273.28,20760,17.56,74032.0,14.43,-24.21,-25.81,0,*47
1497510274.5,20761,17.56,74032.0,14.41,-25.39,-26.87,0,*49
1497510275.72,20762,17.56,74030.0,14.39,-28.97,-30.67,0,*45
1497510276.92,20763,17.56,74030.3,14.39,-28.53,-30.11,0,*4D
1497510278.14,20764,17.56,74028.8,14.35,-28.47,-30.11,0,*43
1497510279.41,20765,17.56,74028.5,14.33,-27.19,-28.75,0,*4B
1497510280.7,20766,17.56,74026.3,14.33,-26.81,-28.25,0,*4D
1497510281.93,20767,17.56,74024.5,14.31,-27.07,-28.59,0,*4A
1497510283.15,20768,17.56,74024.0,14.31,-26.49,-27.89,0,*4C
1497510284.38,20769,17.56,74026.5,14.31,-25.91,-27.35,0,*4C
1497510285.58,20770,17.56,74026.3,14.31,-26.61,-27.93,0,*44
1497510286.81,20771,17.56,74026.3,14.31,-25.91,-27.35,0,*45
1497510288.02,20772,17.56,74026.5,14.27,-25.61,-27.07,0,*4F
1497510289.27,20773,17.56,74028.8,14.27,-25.45,-26.77,0,*4E
1497510290.48,20774,17.56,74026.5,14.27,-26.39,-27.77,0,*40
1497510291.73,20775,17.56,74032.8,14.27,-26.13,-27.45,0,*48
1497510292.98,20776,17.56,74028.8,14.27,-25.45,-26.81,0,*42
1497510294.19,20777,17.56,74028.8,14.27,-25.39,-26.65,0,*42
1497510295.39,20778,17.56,74028.8,14.27,-26.07,-27.55,0,*41
1497510296.62,20779,17.56,74030.3,14.27,-26.55,-27.77,0,*47
1497510297.87,20780,17.56,74030.3,14.27,-25.45,-26.81,0,*4B
1497510299.1,20781,17.56,74028.8,14.27,-25.65,-26.97,0,*4F
1497510300.34,20782,17.56,74030.8,14.31,-28.09,-29.45,0,*4C
1497510301.62,20783,17.56,74024.3,14.25,-27.45,-29.01,0,*4F
1497510302.88,20784,17.56,74030.3,14.25,-26.93,-28.15,0,*46
1497510304.11,20785,17.56,74028.5,14.23,-26.03,-27.45,0,*42
1497510305.37,20786,17.56,74026.3,14.21,-27.07,-28.43,0,*4F
1497510306.66,20787,17.56,74026.0,14.21,-26.93,-28.25,0,*42
1497510307.94,20788,17.56,74026.8,14.21,-27.35,-28.59,0,*4B
1497510309.19,20789,17.56,74026.5,14.21,-29.23,-30.83,0,*4D
1497510310.41,20790,17.56,74026.5,14.17,-28.43,-29.45,0,*45
1497510311.65,20791,17.56,74030.5,14.13,-26.65,-27.83,0,*4E
1497510312.85,20792,17.56,74030.8,14.13,-27.29,-28.69,0,*4F
1497510314.09,20793,17.56,74028.8,14.13,-26.97,-28.31,0,*47
1497510315.35,20794,17.56,74026.0,14.11,-27.99,-29.39,0,*44
1497510316.55,20795,17.56,74028.5,14.09,-26.23,-27.51,0,*4C
1497510317.78,20796,17.56,74030.0,14.09,-26.33,-27.67,0,*4B
1497510318.99,20797,17.56,74024.5,14.09,-27.55,-28.85,0,*48
1497510320.25,20798,17.56,74026.8,14.09,-26.81,-28.05,0,*47
1497510321.5,20799,17.56,74026.3,14.09,-26.81,-28.21,0,*40
1497510322.76,20800,17.56,74026.0,14.05,-28.79,-30.01,0,*41
1497510324.0,20801,17.56,74024.5,14.03,-27.99,-29.23,0,*4F
1497510325.23,20802,17.56,74026.0,14.03,-27.51,-28.69,0,*47
1497510326.51,20803,17.56,74024.0,13.99,-26.33,-27.99,0,*47
1497510327.77,20804,17.56,74020.3,14.01,-25.81,-26.97,0,*43
1497510329.03,20805,17.56,74026.3,14.01,-25.71,-26.81,0,*4A
1497510330.23,20806,17.56,74024.5,14.01,-26.23,-27.55,0,*45
1497510331.46,20807,17.56,74024.8,14.01,-26.17,-27.55,0,*43
1497510332.66,20808,17.56,74024.8,14.01,-26.23,-27.67,0,*4A
1497510333.9,20809,17.56,74022.8,14.01,-27.39,-28.75,0,*4D
1497510335.13,20810,17.56,74020.0,13.99,-26.39,-27.55,0,*4F
1497510336.37,20811,17.56,74022.0,14.01,-25.97,-27.51,0,*4B
1497510337.62,20812,17.56,74024.5,13.99,-25.81,-26.87,0,*43
1497510338.82,20813,17.56,74030.0,14.01,-30.23,-31.67,0,*40
1497510340.07,20814,17.56,74026.5,13.95,-31.33,-32.85,0,*42
1497510341.29,20815,17.56,74026.0,13.93,-28.85,-30.45,0,*4E
1497510342.56,20816,17.56,74022.8,13.91,-27.19,-28.59,0,*41
1497510343.76,20817,17.56,74022.0,13.93,-25.35,-26.65,0,*4F
1497510345.01,20818,17.56,74026.3,13.93,-25.45,-26.77,0,*44
1497510346.24,20819,17.56,74026.3,13.93,-25.19,-26.17,0,*4A
1497510347.48,20820,17.56,74024.0,13.93,-25.49,-26.81,0,*4A
1497510348.71,20821,17.56,74026.8,13.95,-25.39,-26.61,0,*44
1497510349.99,20822,17.56,74024.8,13.95,-25.55,-26.77,0,*4A
1497510351.23,20823,17.56,74026.0,13.95,-25.87,-27.03,0,*46
1497510352.51,20824,17.56,74026.0,13.95,-25.55,-26.71,0,*4A
1497510353.74,20825,17.56,74020.8,13.95,-25.87,-27.13,0,*41
1497510354.99,20826,17.56,74024.8,13.97,-25.03,-26.29,0,*44
1497510356.28,20827,17.56,74024.3,13.99,-24.87,-25.97,0,*40
1497510357.53,20828,17.56,74024.3,13.99,-25.81,-27.03,0,*47
1497510358.8,20829,17.56,74024.5,13.99,-24.57,-25.71,0,*4B
1497510360.03,20830,17.56,74024.0,13.99,-24.97,-26.07,0,*4D
1497510361.29,20831,17.56,74024.8,14.01,-24.83,-25.97,0,*45
1497510362.49,20832,17.56,74024.3,14.01,-25.65,-26.87,0,*4D
1497510363.72,20833,17.56,74024.0,14.01,-25.03,-26.03,0,*40
1497510364.95,20834,17.56,74026.3,14.03,-24.77,-25.91,0,*4F
1497510366.16,20835,17.56,74024.5,14.05,-25.87,-27.29,0,*47
1497510367.38,20836,17.56,74024.5,14.05,-25.39,-26.71,0,*4D
1497510368.62,20837,17.56,74020.3,14.03,-24.47,-25.61,0,*40
1497510369.87,20838,17.56,74026.0,14.05,-25.29,-26.71,0,*42
1497510371.12,20839,17.56,74022.3,14.05,-25.29,-26.77,0,*45
1497510372.39,20840,17.56,74026.5,14.05,-24.41,-25.55,0,*47
1497510373.61,20841,17.56,74022.5,14.09,-25.87,-27.23,0,*42
1497510374.81,20842,17.56,74024.5,14.09,-25.91,-27.07,0,*40
1497510376.03,20843,17.56,74024.5,14.11,-25.09,-26.49,0,*42
1497510377.25,20844,17.56,74024.8,14.11,-25.09,-26.39,0,*42
1497510378.49,20845,17.56,74024.0,14.09,-24.25,-25.35,0,*4A
1497510379.75,20846,17.56,74024.3,14.11,-24.25,-25.39,0,*4C
1497510380.98,20847,17.56,74024.8,14.11,-23.89,-25.09,0,*4F
1497510382.21,20848,17.56,74024.3,14.13,-24.83,-26.03,0,*46
1497510383.47,20849,17.56,74026.8,14.13,-25.97,-27.35,0,*47
1497510384.72,20850,17.56,74024.3,14.13,-25.75,-26.81,0,*4D
1497510385.95,20851,17.56,74024.0,14.15,-24.31,-25.35,0,*47
1497510387.21,20852,17.56,74026.0,14.13,-25.03,-26.33,0,*47
1497510388.46,20853,17.56,74026.5,14.15,-23.99,-25.19,0,*4E
1497510389.71,20854,17.56,74024.3,14.19,-23.53,-24.57,0,*48
1497510390.96,20855,17.56,74026.8,14.19,-23.59,-24.71,0,*47
1497510392.22,20856,17.56,74026.5,14.19,-24.21,-25.35,0,*4D
1497510393.47,20857,17.56,74024.5,14.21,-24.87,-25.91,0,*45
1497510394.74,20858,17.56,74024.5,14.21,-24.25,-25.35,0,*4C
1497510396.0,20859,17.56,74024.8,14.23,-23.85,-25.03,0,*47
1497510397.23,20860,17.56,74028.8,14.27,-23.29,-24.31,0,*4F
1497510398.48,20861,17.56,74024.8,14.27,-23.29,-24.41,0,*49
1497510399.72,20862,17.56,74026.0,14.27,-24.61,-25.97,0,*4B
1497510400.96,20863,17.63,74028.3,14.31,-23.59,-24.71,0,*48
1497510402.19,20864,17.56,74028.5,14.33,-23.43,-24.57,0,*42
1497510403.4,20865,17.56,74024.5,14.31,-23.59,-24.77,0,*48
1497510404.6,20866,17.56,74028.3,14.35,-23.39,-24.51,0,*4D
1497510405.84,20867,17.56,74026.8,14.35,-23.69,-24.83,0,*46
1497510407.1,20868,17.56,74026.5,14.37,-23.65,-24.77,0,*4C
1497510408.37,20869,17.56,74026.5,14.37,-23.99,-25.09,0,*46
1497510409.56,20870,17.56,74026.3,14.39,-24.93,-26.23,0,*46
1497510410.75,20871,17.63,74030.5,14.39,-26.23,-27.77,0,*4E
1497510412.0,20872,17.56,74020.5,14.37,-24.31,-25.49,0,*4D
1497510413.21,20873,17.56,74024.8,14.39,-24.05,-25.09,0,*41
1497510414.47,20874,17.56,74024.8,14.41,-23.49,-24.61,0,*49
1497510415.7,20875,17.56,74026.5,14.41,-23.75,-24.77,0,*40
1497510416.98,20876,17.63,74030.8,14.41,-24.25,-25.45,0,*41
1497510418.24,20877,17.56,74028.3,14.41,-25.03,-26.23,0,*46
1497510419.49,20878,17.56,74026.5,14.43,-25.03,-26.33,0,*4A
1497510420.69,20879,17.63,74024.8,14.43,-25.39,-26.65,0,*41
1497510421.95,20880,17.56,74024.3,14.43,-24.15,-25.29,0,*43
1497510423.21,20881,17.56,74026.5,14.41,-24.47,-25.71,0,*4A
1497510424.47,20882,17.56,74022.0,14.43,-23.53,-24.71,0,*48
1497510425.67,20883,17.56,74024.3,14.43,-23.89,-24.97,0,*46
1497510426.89,20884,17.56,74026.3,14.45,-24.93,-26.23,0,*46
1497510428.14,20885,17.56,74024.8,14.45,-23.95,-24.97,0,*4B
1497510429.42,20886,17.56,74026.3,14.45,-24.11,-25.29,0,*47
1497510430.65,20887,17.56,74026.5,14.47,-23.95,-24.97,0,*4B
1497510431.9,20888,17.63,74028.3,14.49,-23.95,-24.93,0,*4E
1497510433.16,20889,17.56,74028.3,14.49,-23.13,-24.21,0,*48
1497510434.43,20890,17.56,74026.5,14.49,-23.19,-24.41,0,*4C
1497510435.72,20891,17.56,74024.3,14.55,-24.71,-25.97,0,*43
1497510436.99,20892,17.56,74026.3,14.53,-24.67,-25.97,0,*41
1497510438.23,20893,17.56,74024.3,14.53,-24.35,-25.55,0,*49
1497510439.47,20894,17.63,74026.5,14.55,-24.35,-25.65,0,*4B
1497510440.71,20895,17.56,74028.5,14.53,-24.05,-25.03,0,*4F
1497510441.95,20896,17.56,74026.3,14.55,-25.35,-26.55,0,*48
1497510443.19,20897,17.63,74028.0,14.55,-24.35,-25.49,0,*46
1497510444.4,20898,17.56,74024.0,14.57,-23.79,-24.93,0,*42
1497510445.64,20899,17.56,74022.0,14.59,-24.77,-26.03,0,*4F
1497510446.87,20900,17.56,74022.8,14.57,-24.61,-25.81,0,*4E
1497510448.13,20901,17.63,74028.0,14.59,-24.57,-25.75,0,*4F
1497510449.36,20902,17.63,74028.5,14.57,-23.99,-25.19,0,*4D
1497510450.59,20903,17.63,74026.3,14.57,-25.91,-27.23,0,*49
1497510451.88,20904,17.63,74030.3,14.55,-25.97,-27.35,0,*4D
1497510453.11,20905,17.56,74026.5,14.53,-25.03,-26.23,0,*41
1497510454.36,20906,17.63,74030.0,14.55,-25.35,-26.71,0,*46
1497510455.59,20907,17.56,74026.5,14.53,-26.55,-27.89,0,*42
1497510456.82,20908,17.56,74026.3,14.53,-26.13,-27.51,0,*4A
1497510458.08,20909,17.56,74024.0,14.53,-25.81,-26.97,0,*48
1497510459.29,20910,17.56,74024.0,14.53,-25.13,-26.39,0,*4F
1497510460.53,20911,17.56,74024.5,14.53,-25.71,-27.03,0,*42
1497510461.82,20912,17.63,74026.0,14.49,-24.25,-25.55,0,*4B
1497510463.07,20913,17.63,74026.0,14.49,-27.19,-28.37,0,*4F
1497510464.3,20914,17.56,74024.8,14.47,-25.49,-26.97,0,*45
1497510465.53,20915,17.56,74024.0,14.47,-25.49,-26.81,0,*43
1497510466.78,20916,17.63,74026.3,14.49,-26.39,-27.61,0,*45
1497510468.0,20917,17.63,74026.3,14.47,-25.45,-26.61,0,*43
1497510469.23,20918,17.56,74026.3,14.47,-26.07,-27.23,0,*4E
1497510470.46,20919,17.56,74024.0,14.47,-26.65,-28.09,0,*4C
1497510471.71,20920,17.63,74024.5,14.45,-28.79,-30.23,0,*46
1497510472.94,20921,17.56,74020.5,14.43,-27.45,-28.85,0,*44
1497510474.15,20922,17.56,74016.8,14.39,-28.53,-29.95,0,*42
1497510475.35,20923,17.63,74024.8,14.39,-25.23,-26.45,0,*4B
1497510476.58,20924,17.63,74022.0,14.39,-24.61,-25.75,0,*4B
1497510477.8,20925,17.56,74024.5,14.39,-24.93,-26.17,0,*40
1497510479.03,20926,17.56,74026.0,14.41,-25.09,-26.39,0,*42
1497510480.26,20927,17.63,74024.5,14.41,-25.87,-27.07,0,*49
1497510481.49,20928,17.63,74022.8,14.41,-24.57,-25.91,0,*47
1497510482.75,20929,17.56,74022.0,14.41,-24.21,-25.23,0,*4E
1497510483.99,20930,17.56,74020.5,14.45,-23.23,-24.35,0,*41
1497510485.21,20931,17.63,74026.0,14.47,-23.13,-24.15,0,*43
1497510486.46,20932,17.63,74026.5,14.47,-23.49,-24.67,0,*4A
1497510487.71,20933,17.63,74026.5,14.49,-22.93,-23.95,0,*49
1497510488.94,20934,17.56,74026.8,14.49,-23.43,-24.57,0,*4B
1497510490.16,20935,17.56,74026.5,14.55,-22.87,-23.89,0,*4A
1497510491.42,20936,17.63,74024.3,14.55,-24.35,-25.71,0,*47
1497510492.69,20937,17.63,74024.5,14.55,-26.33,-27.29,0,*4D
1497510493.93,20938,17.56,74022.8,14.55,-25.23,-26.55,0,*4A
1497510495.19,20939,17.56,74020.5,14.53,-23.85,-24.87,0,*4A
1497510496.45,20940,17.56,74022.8,14.55,-23.43,-24.71,0,*41